• In United Kingdom
  • List of Countries
  • For 7 days
  • Water Temperature
  • Satellite Maps
  • Weather Map
  • Weather Widgets
  • user-avatar
    Login

    Hourly Weather Santiago de Querétaro

    Today, 21 January, Sunday

    Time Temperature Precipitation Wind Pressure Humidity
    00:00 +12°C° 0 mm 1 mps 606 mmHg 45%
    01:00 +12°C° 0 mm 1 mps 606 mmHg 47%
    02:00 +11°C° 0 mm 1 mps 605 mmHg 49%
    03:00 +11°C° 0 mm 1 mps 605 mmHg 50%
    04:00 +11°C° 0 mm 1 mps 605 mmHg 52%
    05:00 +10°C° 0 mm 1 mps 605 mmHg 53%
    06:00 +12°C° 0 mm 1 mps 606 mmHg 49%
    07:00 +13°C° 0 mm 1 mps 607 mmHg 45%
    08:00 +15°C° 0 mm 1 mps 607 mmHg 40%
    09:00 +17°C° 0 mm 2 mps 608 mmHg 35%
    10:00 +19°C° 0 mm 2 mps 609 mmHg 29%
    11:00 +22°C° 0 mm 3 mps 609 mmHg 24%
    12:00 +24°C° 0 mm 3 mps 609 mmHg 21%
    13:00 +25°C° 0 mm 4 mps 608 mmHg 19%
    14:00 +26°C° 0 mm 4 mps 607 mmHg 16%
    15:00 +25°C° 0 mm 4 mps 607 mmHg 17%
    16:00 +24°C° 0 mm 3 mps 607 mmHg 18%
    17:00 +22°C° 0 mm 3 mps 606 mmHg 19%
    18:00 +20°C° 0 mm 3 mps 606 mmHg 21%
    19:00 +18°C° 0 mm 2 mps 606 mmHg 24%
    20:00 +16°C° 0 mm 1 mps 606 mmHg 27%
    21:00 +15°C° 0 mm 1 mps 606 mmHg 31%
    22:00 +14°C° 0 mm 1 mps 606 mmHg 35%
    23:00 +13°C° 0 mm 1 mps 606 mmHg 39%

    Tomorrow, 22 January, Monday

    Time Temperature Precipitation Wind Pressure Humidity
    00:00 +13°C° 0 mm 1 mps 605 mmHg 41%
    01:00 +12°C° 0 mm 1 mps 605 mmHg 44%
    02:00 +12°C° 0 mm 1 mps 605 mmHg 46%
    03:00 +11°C° 0 mm 1 mps 605 mmHg 48%
    04:00 +11°C° 0 mm 1 mps 604 mmHg 50%
    05:00 +11°C° 0 mm 1 mps 604 mmHg 51%
    06:00 +12°C° 0 mm 1 mps 606 mmHg 47%
    07:00 +14°C° 0 mm 1 mps 607 mmHg 42%
    08:00 +16°C° 0 mm 1 mps 608 mmHg 37%
    09:00 +18°C° 0 mm 2 mps 609 mmHg 33%
    10:00 +21°C° 0 mm 2 mps 609 mmHg 28%
    11:00 +24°C° 0 mm 3 mps 610 mmHg 24%
    12:00 +25°C° 0 mm 3 mps 609 mmHg 23%
    13:00 +26°C° 0 mm 3 mps 609 mmHg 22%
    14:00 +26°C° 0 mm 3 mps 608 mmHg 22%
    15:00 +25°C° 0 mm 4 mps 608 mmHg 28%
    16:00 +22°C° 0 mm 5 mps 607 mmHg 35%
    17:00 +21°C° 0 mm 5 mps 607 mmHg 42%
    18:00 +19°C° 0 mm 5 mps 607 mmHg 53%
    19:00 +16°C° 0 mm 5 mps 607 mmHg 64%
    20:00 +14°C° 0 mm 4 mps 607 mmHg 75%
    21:00 +13°C° 0 mm 4 mps 607 mmHg 76%
    22:00 +13°C° 0 mm 4 mps 607 mmHg 77%
    23:00 +13°C° 0 mm 4 mps 608 mmHg 78%

    Day after tomorrow, 23 January, Tuesday

    Time Temperature Precipitation Wind Pressure Humidity
    00:00 +12°C° 0 mm 3 mps 607 mmHg 80%
    01:00 +12°C° 0 mm 3 mps 607 mmHg 82%
    02:00 +13°C° 0 mm 2 mps 606 mmHg 84%
    03:00 +12°C° 0 mm 2 mps 606 mmHg 85%
    04:00 +11°C° 0 mm 3 mps 606 mmHg 86%
    05:00 +11°C° 0 mm 3 mps 606 mmHg 87%
    06:00 +12°C° 0 mm 3 mps 607 mmHg 82%
    07:00 +13°C° 0 mm 3 mps 608 mmHg 77%
    08:00 +14°C° 0 mm 3 mps 609 mmHg 72%
    09:00 +17°C° 0 mm 3 mps 609 mmHg 62%
    10:00 +19°C° 0 mm 3 mps 609 mmHg 53%
    11:00 +21°C° 0 mm 3 mps 610 mmHg 43%
    12:00 +22°C° 0 mm 3 mps 609 mmHg 39%
    13:00 +24°C° 0 mm 3 mps 609 mmHg 36%
    14:00 +24°C° 0 mm 2 mps 608 mmHg 32%
    15:00 +22°C° 0 mm 3 mps 608 mmHg 36%
    16:00 +21°C° 0 mm 4 mps 607 mmHg 40%
    17:00 +20°C° 0 mm 4 mps 607 mmHg 44%
    18:00 +18°C° 0.1 mm 4 mps 607 mmHg 50%
    19:00 +17°C° 0.1 mm 3 mps 608 mmHg 56%
    20:00 +14°C° 0.1 mm 3 mps 608 mmHg 62%
    21:00 +13°C° 0 mm 3 mps 608 mmHg 66%
    22:00 +13°C° 0 mm 3 mps 608 mmHg 69%
    23:00 +13°C° 0 mm 2 mps 608 mmHg 73%

    24 January, Wednesday

    Time Temperature Precipitation Wind Pressure Humidity
    00:00 +12°C° 0 mm 2 mps 607 mmHg 76%
    01:00 +12°C° 0 mm 2 mps 607 mmHg 79%
    02:00 +10°C° 0 mm 2 mps 606 mmHg 82%
    03:00 +10°C° 0 mm 2 mps 606 mmHg 83%
    04:00 +10°C° 0 mm 2 mps 606 mmHg 85%
    05:00 +10°C° 0 mm 2 mps 606 mmHg 87%
    06:00 +12°C° 0 mm 2 mps 607 mmHg 82%
    07:00 +13°C° 0 mm 2 mps 608 mmHg 76%
    08:00 +13°C° 0 mm 3 mps 609 mmHg 71%
    09:00 +16°C° 0 mm 3 mps 609 mmHg 62%
    10:00 +19°C° 0 mm 3 mps 610 mmHg 52%
    11:00 +21°C° 0 mm 3 mps 610 mmHg 43%
    12:00 +22°C° 0.1 mm 4 mps 610 mmHg 40%
    13:00 +22°C° 0.1 mm 4 mps 609 mmHg 38%
    14:00 +23°C° 0.1 mm 4 mps 609 mmHg 36%
    15:00 +21°C° 0.2 mm 5 mps 608 mmHg 43%
    16:00 +20°C° 0.2 mm 6 mps 608 mmHg 49%
    17:00 +17°C° 0.2 mm 6 mps 608 mmHg 56%
    18:00 +16°C° 0.1 mm 6 mps 608 mmHg 62%
    19:00 +14°C° 0.1 mm 6 mps 608 mmHg 69%
    20:00 +13°C° 0.1 mm 5 mps 608 mmHg 76%
    21:00 +13°C° 0 mm 5 mps 609 mmHg 76%
    22:00 +13°C° 0 mm 5 mps 609 mmHg 76%
    23:00 +12°C° 0 mm 4 mps 609 mmHg 77%

    25 January, Thursday

    Time Temperature Precipitation Wind Pressure Humidity
    00:00 +12°C° 0 mm 4 mps 608 mmHg 77%
    01:00 +12°C° 0 mm 4 mps 608 mmHg 78%
    02:00 +11°C° 0 mm 3 mps 608 mmHg 78%
    03:00 +11°C° 0 mm 3 mps 608 mmHg 79%
    04:00 +11°C° 0 mm 3 mps 608 mmHg 81%
    05:00 +11°C° 0 mm 3 mps 608 mmHg 82%
    06:00 +11°C° 0 mm 4 mps 608 mmHg 79%
    07:00 +12°C° 0 mm 4 mps 609 mmHg 76%
    08:00 +12°C° 0 mm 4 mps 610 mmHg 73%
    09:00 +14°C° 0 mm 5 mps 610 mmHg 66%
    10:00 +16°C° 0 mm 5 mps 610 mmHg 58%
    11:00 +17°C° 0 mm 5 mps 611 mmHg 51%
    12:00 +19°C° 0 mm 5 mps 610 mmHg 48%
    13:00 +19°C° 0 mm 5 mps 610 mmHg 46%
    14:00 +20°C° 0 mm 5 mps 609 mmHg 44%
    15:00 +19°C° 0 mm 5 mps 609 mmHg 48%
    16:00 +17°C° 0 mm 5 mps 608 mmHg 52%
    17:00 +16°C° 0 mm 5 mps 608 mmHg 56%
    18:00 +15°C° 0 mm 4 mps 608 mmHg 62%
    19:00 +14°C° 0 mm 4 mps 608 mmHg 68%
    20:00 +12°C° 0 mm 4 mps 608 mmHg 74%
    21:00 +12°C° 0 mm 3 mps 608 mmHg 76%
    22:00 +12°C° 0 mm 3 mps 608 mmHg 78%
    23:00 +11°C° 0 mm 3 mps 608 mmHg 81%

    26 January, Friday

    Time Temperature Precipitation Wind Pressure Humidity
    00:00 +12°C° 0 mm 2 mps 607 mmHg 82%
    01:00 +10°C° 0 mm 2 mps 607 mmHg 84%
    02:00 +10°C° 0 mm 2 mps 607 mmHg 85%
    03:00 +9°C° 0 mm 2 mps 607 mmHg 87%
    04:00 +9°C° 0 mm 2 mps 606 mmHg 88%
    05:00 +10°C° 0 mm 1 mps 606 mmHg 89%
    06:00 +10°C° 0 mm 2 mps 607 mmHg 83%
    07:00 +12°C° 0 mm 2 mps 607 mmHg 77%
    08:00 +13°C° 0 mm 2 mps 608 mmHg 71%
    09:00 +15°C° 0 mm 2 mps 609 mmHg 61%
    10:00 +19°C° 0 mm 1 mps 609 mmHg 50%
    11:00 +22°C° 0 mm 1 mps 609 mmHg 40%
    12:00 +23°C° 0 mm 1 mps 609 mmHg 36%
    13:00 +24°C° 0 mm 2 mps 608 mmHg 32%
    14:00 +25°C° 0 mm 2 mps 608 mmHg 28%
    15:00 +24°C° 0 mm 2 mps 608 mmHg 29%
    16:00 +23°C° 0 mm 2 mps 607 mmHg 30%
    17:00 +23°C° 0 mm 2 mps 607 mmHg 31%
    18:00 +20°C° 0 mm 2 mps 607 mmHg 36%
    19:00 +19°C° 0 mm 2 mps 607 mmHg 42%
    20:00 +17°C° 0 mm 2 mps 607 mmHg 47%
    21:00 +16°C° 0 mm 2 mps 607 mmHg 52%
    22:00 +16°C° 0 mm 1 mps 607 mmHg 56%
    23:00 +15°C° 0 mm 1 mps 606 mmHg 61%
    Show more